Home   Weather   French Lick   Past weeks

Flag for USA Past Weather in French Lick, Indiana, USA — Yesterday and Last 2 Weeks

Now
72 °F

Clear.


Feels Like: 69 °F
Forecast: 72 / 90 °F
Wind: 3 mph from Northeast

Location: Huntingburg Airport

Current Time: Aug 30, 2016 at 7:08:55 AM

Latest Report: Aug 30, 2016 at 6:35 AM


Visibility: 10 mi

Pressure: 30.12 "Hg

Humidity: 88%

Dew Point: 68 °F

Location of French LickLocation

Past Weather in French Lick — Graph

°F

French Lick Temperature Yesterday

Maximum temperature yesterday: 91 °F (at 3:35 PM)
Minimum temperature yesterday: 70 °F (at 4:55 AM)
Average temperature yesterday: 79 °F

High & Low Weather Summary for the Past Weeks

 TemperatureHumidityPressure
High93 °F (Aug 28, 3:35 PM)100% (Aug 22, 7:55 AM)30.29 "Hg (Aug 22, 7:55 AM)
Low57 °F (Aug 22, 4:55 AM)42% (Aug 22, 3:35 PM)29.72 "Hg (Aug 20, 4:35 PM)
Average77 °F79%30.09 "Hg
* Reported Aug 15 5:15 AM — Aug 30 5:55 AM, French Lick, Weather by CustomWeather, © 2016

Note: Actual official high and low records may vary slightly from our data, if they occured in-between our weather recording intervals... More about our weather records

Advertising

French Lick Weather History for the Previous 24 Hours

Scroll right to see more
 ConditionsComfort  
Time TempWeatherWind HumidityBarometerVisibility
5:55 AM
Tue, Aug 30
72 °FClear.5 mph88%30.12 "Hg8 mi
5:35 AM72 °FClear.3 mph88%30.12 "Hg9 mi
5:15 AM72 °FClear.5 mph88%30.12 "Hg8 mi
4:55 AM72 °FClear.3 mph88%30.12 "Hg8 mi
4:35 AM72 °FClear.3 mph88%30.12 "Hg9 mi
4:15 AM72 °FClear.3 mph88%30.12 "Hg7 mi
3:55 AM73 °FClear.No wind89%30.13 "Hg10 mi
3:35 AM72 °FClear.No wind94%30.13 "Hg10 mi
3:15 AM72 °FClear.3 mph88%30.13 "Hg10 mi
2:55 AM72 °FClear.3 mph94%30.13 "Hg10 mi
2:35 AM73 °FClear.No wind89%30.13 "Hg10 mi
2:15 AM72 °FClear.No wind88%30.13 "Hg10 mi
1:55 AM73 °FClear.No wind89%30.13 "Hg10 mi
1:35 AM73 °FClear.3 mph89%30.14 "Hg10 mi
1:15 AM73 °FClear.3 mph89%30.14 "Hg10 mi
12:55 AM73 °FClear.5 mph83%30.15 "Hg10 mi
12:35 AM73 °FClear.3 mph83%30.15 "Hg10 mi
12:15 AM73 °FClear.6 mph83%30.15 "Hg10 mi
11:55 PM
Mon, Aug 29
73 °FClear.No wind89%30.15 "Hg10 mi
11:35 PM73 °FClear.5 mph89%30.15 "Hg10 mi
11:15 PM75 °FClear.3 mph83%30.15 "Hg10 mi
10:55 PM75 °FClear.3 mph83%30.14 "Hg10 mi
10:35 PM75 °FClear.5 mph83%30.14 "Hg10 mi
9:55 PM75 °FClear.5 mph83%30.13 "Hg10 mi
9:35 PM77 °FClear.5 mph79%30.13 "Hg10 mi
9:15 PM79 °FSunny.5 mph74%30.13 "Hg10 mi
8:55 PM79 °FSunny.3 mph74%30.13 "Hg10 mi
8:35 PM81 °FSunny.5 mph70%30.13 "Hg10 mi
8:15 PM81 °FSunny.5 mph70%30.12 "Hg10 mi
7:55 PM82 °FSunny.6 mph66%30.12 "Hg10 mi
7:35 PM84 °FSunny.7 mph62%30.12 "Hg10 mi
7:15 PM86 °FSunny.7 mph59%30.12 "Hg10 mi
6:55 PM88 °FSunny.8 mph55%30.12 "Hg10 mi
6:35 PM88 °FSunny.7 mph55%30.12 "Hg10 mi
6:15 PM90 °FSunny.8 mph52%30.12 "Hg10 mi
5:55 PM90 °FSunny.7 mph52%30.12 "Hg10 mi
5:35 PM90 °FSunny.7 mph52%30.12 "Hg10 mi
5:15 PM90 °FSunny.5 mph52%30.13 "Hg10 mi
4:55 PM90 °FSunny.8 mph55%30.13 "Hg10 mi
4:35 PM91 °FSunny.7 mph49%30.14 "Hg10 mi
4:15 PM91 °FSunny.5 mph52%30.15 "Hg10 mi
3:55 PM91 °FSunny.7 mph52%30.15 "Hg10 mi
3:35 PM91 °FSunny.3 mph49%30.17 "Hg10 mi
3:15 PM90 °FSunny.7 mph52%30.17 "Hg10 mi
2:55 PM90 °FSunny.8 mph52%30.18 "Hg10 mi
2:35 PM90 °FSunny.8 mph55%30.19 "Hg10 mi
2:15 PM90 °FSunny.9 mph55%30.20 "Hg10 mi
1:55 PM90 °FSunny.6 mph55%30.20 "Hg10 mi
1:35 PM90 °FSunny.8 mph55%30.20 "Hg10 mi
1:15 PM88 °FSunny.6 mph55%30.20 "Hg10 mi
12:55 PM88 °FSunny.7 mph59%30.21 "Hg10 mi
12:35 PM86 °FSunny.6 mph62%30.21 "Hg10 mi
12:15 PM84 °FSunny.6 mph66%30.22 "Hg10 mi
11:55 AM84 °FSunny.5 mph66%30.22 "Hg10 mi
11:35 AM82 °FSunny.6 mph66%30.22 "Hg10 mi
11:15 AM82 °FSunny.5 mph66%30.22 "Hg10 mi
10:55 AM81 °FSunny.5 mph70%30.22 "Hg10 mi
10:35 AM81 °FSunny.6 mph70%30.22 "Hg10 mi
10:15 AM79 °FSunny.6 mph74%30.22 "Hg10 mi
9:55 AM79 °FSunny.6 mph74%30.22 "Hg10 mi
9:35 AM75 °FSunny.3 mph83%30.22 "Hg10 mi
9:15 AM75 °FSunny.5 mph83%30.21 "Hg10 mi
8:55 AM73 °FSunny.No wind83%30.21 "Hg10 mi
8:35 AM73 °FSunny.3 mph83%30.20 "Hg10 mi
8:15 AM72 °FSunny.3 mph88%30.19 "Hg10 mi
7:55 AM70 °FClear.No wind88%30.19 "Hg8 mi
7:35 AM70 °FClear.5 mph88%30.18 "Hg10 mi
7:15 AM70 °FClear.6 mph88%30.17 "Hg9 mi
Weather by CustomWeather, © 2016

See weather overviewHow to use our weather pages